EW7614 Weather Reports


Display with metric or nautical units.
time (UTC)temp
F
wind
direction
speed
MPH
gust
MPH
rain 1hr
in
rain 24hr
in
rain mn
in
humidity
%
barometer
mb
20260509161615 63 210 0.0 1.0 0.00 0.02 0.02 62 1013.8
20260509160026 64 316 0.0 1.0 0.00 0.02 0.02 58 1014.1
20260509154615 63 76 0.0 3.0 0.00 0.02 0.02 60 1014.2
20260509153019 63 63 0.0 2.0 0.00 0.02 0.02 69 1014.5
20260509151559 61 300 0.0 3.0 0.01 0.02 0.02 69 1014.8
20260509150136 61 67 0.0 2.0 0.02 0.02 0.02 73 1014.9
20260509144548 56 196 1.0 3.0 0.02 0.02 0.02 85 1014.9
20260509143121 54 59 0.0 1.0 0.02 0.02 0.02 87 1015.0
20260509141541 54 349 0.0 1.0 0.01 0.01 0.01 85 1014.8
20260509140118 54 269 0.0 4.0 0.00 0.00 0.00 84 1014.7
20260509134531 54 201 0.0 1.0 0.00 0.00 0.00 83 1014.2
20260509133113 54 217 0.0 3.0 0.00 0.00 0.00 77 1013.8
20260509131528 57 196 1.0 14.0 0.00 0.00 0.00 62 1013.4
20260509130120 64 302 9.0 15.0 0.00 0.00 0.00 50 1012.8
20260509124511 67 294 2.0 4.0 0.00 0.00 0.00 50 1012.2
20260509123043 68 313 1.0 3.0 0.00 0.00 0.00 50 1012.0
20260509121516 68 281 0.0 2.0 0.00 0.00 0.00 46 1012.0
20260509114513 70 279 1.0 4.0 0.00 0.00 0.00 48 1012.3
20260509113051 69 308 2.0 8.0 0.00 0.00 0.00 51 1012.4
20260509111629 71 195 0.0 3.0 0.00 0.00 0.00 42 1012.4
20260509110026 70 67 0.0 3.0 0.00 0.00 0.00 49 1012.7
20260509104612 67 192 1.0 8.0 0.00 0.00 0.00 51 1013.0
20260509103103 66 334 1.0 5.0 0.00 0.00 0.00 55 1013.3
20260509101626 66 315 3.0 8.0 0.00 0.00 0.00 54 1013.5
20260509100025 66 329 1.0 6.0 0.00 0.00 0.00 53 1013.5
20260509094556 67 18 2.0 8.0 0.00 0.00 0.00 52 1013.7
20260509093115 66 265 1.0 4.0 0.00 0.00 0.00 50 1013.8
20260509091516 64 235 0.0 4.0 0.00 0.00 0.00 54 1014.1
20260509090058 64 300 1.0 6.0 0.00 0.00 0.00 58 1014.2
20260509084505 63 335 1.0 5.0 0.00 0.00 0.00 61 1014.5
20260509083038 61 64 1.0 4.0 0.00 0.00 0.00 63 1014.6
20260509081625 58 140 0.0 2.0 0.00 0.00 0.00 71 1014.8
20260509080030 59 242 0.0 4.0 0.00 0.00 0.00 66 1014.9
20260509074605 59 38 1.0 5.0 0.00 0.00 0.00 67 1015.0
20260509073017 56 209 3.0 9.0 0.00 0.00 0.00 67 1015.2
20260509071552 57 284 0.0 2.0 0.00 0.00 0.00 70 1015.2
20260509070128 55 312 0.0 3.0 0.00 0.00 0.00 75 1015.3
20260509064508 52 316 0.0 2.0 0.00 0.00 0.00 79 1015.2
20260509063121 50 272 0.0 1.0 0.00 0.00 0.00 85 1015.2
20260509061518 47 272 0.0 2.0 0.00 0.00 0.00 89 1015.2
20260509060059 45 308 0.0 2.0 0.00 0.00 0.00 92 1015.2
20260509054512 43 280 0.0 0.0 0.00 0.00 0.00 95 1015.4
20260509053055 41 279 0.0 0.0 0.00 0.00 0.00 95 1015.4
20260509051633 41 279 0.0 0.0 0.00 0.00 0.00 95 1015.5
20260509050041 40 279 0.0 0.0 0.00 0.00 0.00 95 1015.3
20260509044632 41 279 0.0 0.0 0.00 0.00 0.00 95 1015.2
20260509043040 41 279 0.0 0.0 0.00 0.00 0.00 96 1015.1
20260509041635 39 279 0.0 0.0 0.00 0.00 0.00 96 1015.0
20260509040043 39 279 0.0 0.0 0.00 0.00 0.00 95 1014.9
20260509034506 40 279 0.0 0.0 0.00 0.00 0.00 95 1014.9
20260509033100 39 279 0.0 0.0 0.00 0.00 0.00 95 1014.8
20260509031512 40 279 0.0 0.0 0.00 0.00 0.00 95 1014.7
20260509030106 40 279 0.0 0.0 0.00 0.00 0.00 94 1014.6
20260509024520 40 279 0.0 0.0 0.00 0.00 0.00 94 1014.7
20260509023109 40 279 0.0 0.0 0.00 0.00 0.00 93 1014.6
20260509021515 41 279 0.0 0.0 0.00 0.00 0.00 92 1014.4
20260509020105 42 284 0.0 0.0 0.00 0.00 0.00 93 1014.3
20260509014534 42 285 0.0 0.0 0.00 0.00 0.00 91 1014.3
20260509013109 43 285 0.0 0.0 0.00 0.00 0.00 93 1014.4
20260509011528 43 273 0.0 0.0 0.00 0.00 0.00 92 1014.5
20260509010120 43 273 0.0 0.0 0.00 0.00 0.00 92 1014.4
20260509004541 43 273 0.0 0.0 0.00 0.00 0.00 92 1014.4
20260509003017 44 268 0.0 0.0 0.00 0.00 0.00 91 1014.4
20260509001556 44 268 0.0 0.0 0.00 0.00 0.00 87 1014.5
20260509000011 46 276 0.0 0.0 0.00 0.00 0.00 89 1014.6
20260508234559 46 271 0.0 0.0 0.00 0.00 0.00 87 1014.7
20260508233016 47 272 0.0 0.0 0.00 0.00 0.00 85 1014.6
20260508231608 47 267 0.0 1.0 0.00 0.00 0.00 86 1014.6
20260508230025 47 267 0.0 1.0 0.00 0.00 0.00 85 1014.6
20260508224618 49 289 0.0 0.0 0.00 0.00 0.00 82 1014.5
20260508223047 48 289 0.0 0.0 0.00 0.00 0.00 84 1014.6
20260508221509 48 289 0.0 0.0 0.00 0.00 0.00 84 1014.5
20260508220055 48 289 0.0 0.0 0.00 0.00 0.00 84 1014.5
20260508214524 48 288 0.0 0.0 0.00 0.00 0.00 83 1014.3
20260508213110 49 180 0.0 0.0 0.00 0.00 0.00 82 1014.1
20260508211524 50 179 0.0 0.0 0.00 0.00 0.00 80 1014.1
20260508210120 50 182 0.0 0.0 0.00 0.00 0.00 79 1014.0
20260508204536 51 182 0.0 0.0 0.00 0.00 0.00 78 1013.7
20260508203130 51 212 0.0 0.0 0.00 0.00 0.00 77 1013.7
20260508201602 53 211 0.0 0.0 0.00 0.00 0.00 74 1013.5
20260508200008 54 190 0.0 1.0 0.00 0.00 0.00 70 1013.4
20260508194601 56 249 0.0 6.0 0.00 0.01 0.00 66 1013.3
20260508193018 57 138 0.0 3.0 0.00 0.01 0.00 66 1013.0
20260508191601 58 150 3.0 7.0 0.00 0.01 0.00 61 1012.9
20260508190031 59 201 4.0 8.0 0.00 0.01 0.00 60 1012.6
20260508184610 59 199 2.0 6.0 0.00 0.01 0.00 59 1012.3
20260508183035 59 132 2.0 3.0 0.00 0.01 0.00 59 1012.2
20260508181625 60 113 0.0 3.0 0.00 0.01 0.00 59 1012.0
20260508180042 61 163 0.0 2.0 0.00 0.01 0.00 59 1011.9
20260508174501 61 219 0.0 3.0 0.00 0.01 0.00 57 1011.7
20260508173051 62 282 0.0 6.0 0.00 0.01 0.00 54 1011.6
20260508171633 62 306 1.0 7.0 0.00 0.01 0.00 52 1011.4
20260508170054 63 272 1.0 7.0 0.00 0.01 0.00 50 1011.5
20260508164504 63 243 1.0 10.0 0.00 0.01 0.00 49 1011.3
20260508163055 63 300 2.0 11.0 0.00 0.01 0.00 47 1011.3